{"data":{"norad_id":62647,"intl_designator":"2025-009AQ","name":"FLOCK 4G-23","alt_names":[],"object_type":"PAYLOAD","status":"ACTIVE","operator":null,"country":"US","launch_date":"2025-01-14","launch_site_code":"AFWTR","launch_vehicle":null,"mission":null,"orbit_class":"UNKNOWN","rcs_meters":null,"size_class":null,"mass_kg":null,"dimensions":null,"purposes":["earth_obs"],"wikipedia_slug":null,"has_3d_model":false,"image_url":null,"decayed_at":null,"tle_current":{"epoch":"2026-09-19T11:47:16.810656Z","epoch_age_seconds":105485,"freshness":"FRESH","line1":"1 62647U 25009AQ  26262.49116679  .00037950  00000+0  95094-3 0  9995","line2":"2 62647  97.3859 344.5517 0000361 255.3774 104.7432 15.39963062 93401","mean_motion":15.39963062,"eccentricity":3.61e-5,"inclination_deg":97.3859,"raan_deg":344.5517,"arg_perigee_deg":255.3774,"mean_anomaly_deg":104.7432,"bstar":0.00095094,"rev_number":9340,"period_min":93.508736380328,"perigee_km":445.97208387772,"apogee_km":446.46480234072,"semimajor_km":6824.3554431092,"source":"CELESTRAK","updated_at":"2026-09-20T09:00:34.720473Z"}}}